#timestamp,LO_Frequency,Hit,StdDev 
1592949615.6,286047003.6,P
1592949635.4,286047003.7,P
1592949655.2,286047001.7,N
1592949675.1,286047004.0,Y
1592949676.0,286047004.0,P
1592949695.8,286047000.4,N
1592949715.7,286046999.3,N
1592949735.5,286047001.0,N
1592949755.3,286047001.1,N
1592949775.2,286047000.0,N
1592949795.0,286047002.6,N
1592949795.9,286047002.6,N
1592949815.8,286046999.9,N
1592949835.6,286047000.3,N
1592949855.4,286046999.9,N
1592949875.3,286047004.0,N
1592949895.1,286047004.3,N
1592949915.9,286046999.7,N
1592949935.7,286047000.1,N
1592949955.5,286046998.2,N
1592949975.4,286047003.8,N
1592949995.2,286047005.3,N
1592950015.1,286047005.3,N
1592950016.0,286047005.3,N
1592950035.8,286047003.7,N
1592950055.6,286047002.2,N
1592950075.5,286047004.3,N
1592950095.3,286047002.0,N
1592950115.1,286047000.5,N
1592950135.9,286046998.7,N
1592950155.7,286046998.3,N
1592950175.6,286046999.1,N
1592950195.4,286046997.1,N
1592950215.2,286046997.7,N
1592950235.1,286046995.4,N
1592950236.0,286046995.4,N
1592950255.8,286046997.3,N
1592950275.7,286046997.8,N
1592950295.5,286046997.7,N
1592950315.3,286046995.4,N
1592950335.2,286046995.1,N
1592950355.0,286046995.2,N
1592950355.9,286046995.2,N
1592950375.8,286046997.1,N
1592950395.6,286046997.8,N
1592950415.4,286046997.5,N
1592950435.3,286046995.4,N
1592950455.1,286046995.4,N
1592950475.9,286046997.8,N
1592950495.7,286046997.4,N
1592950515.5,286046996.2,N
1592950535.4,286046995.4,N
1592950555.2,286046996.1,N
1592950575.1,286046996.0,N
1592950576.0,286046996.0,N
1592950595.8,286046995.7,N
1592950615.6,286046993.3,Y
1592950635.5,286046997.7,P
1592950655.3,286046999.2,P
1592950675.1,286046997.2,P
1592950695.9,286046997.2,Y
1592950715.7,286047001.2,P
1592950735.6,286046998.6,N
1592950755.4,286046999.4,N
1592950775.2,286046999.4,N
1592950795.1,286046999.2,N
1592950796.0,286046999.2,N
1592950815.8,286046998.8,N
1592950835.7,286046998.8,N
1592950855.5,286046998.9,N
1592950875.3,286046999.4,N
1592950895.2,286046998.8,N
1592950915.0,286046999.4,N
1592950915.9,286046999.4,N
1592950935.8,286046996.9,Y
1592950955.6,286046998.6,P
1592950975.4,286047001.1,P
1592950995.3,286046998.8,N
1592951015.1,286046999.3,N
1592951035.9,286047000.8,N
1592951055.7,286047001.0,N
1592951075.5,286047001.0,N
1592951095.4,286047000.5,N
1592951115.2,286046998.1,N
1592951135.0,286046998.5,N
1592951135.9,286046998.5,N
1592951155.8,286046999.2,N
1592951175.6,286046998.7,N
1592951195.5,286046998.2,N
1592951215.3,286047000.8,N
1592951235.1,286047000.6,N
1592951255.9,286047000.7,N
1592951275.7,286047000.9,N
1592951295.5,286047001.1,N
1592951315.4,286047000.5,N
1592951335.2,286047000.4,N
1592951355.1,286047001.1,N
1592951356.0,286047001.1,N
1592951375.8,286047000.2,N
1592951395.6,286047000.8,N
1592951415.5,286046998.9,N
1592951435.3,286047000.9,N
1592951455.1,286047000.6,N
1592951475.9,286047001.2,N
1592951495.7,286046998.7,N
1592951515.6,286046999.4,N
1592951535.4,286046998.9,N
1592951555.2,286046999.2,N
1592951575.1,286046999.6,N
1592951576.0,286046999.6,N
1592951595.8,286046996.7,Y
1592951615.7,286046999.6,P
1592951635.5,286046996.5,P
1592951655.3,286046999.5,N
1592951675.2,286046999.6,N
1592951695.0,286046999.4,N
1592951695.9,286046999.4,N
1592951715.8,286046997.0,N
1592951735.6,286046997.7,N
1592951755.4,286046999.4,N
1592951775.3,286046998.8,N
1592951795.1,286046998.8,N
1592951815.8,286046999.6,N
1592951835.7,286046999.4,N
1592951855.5,286046999.3,N
1592951875.4,286046996.7,Y
1592951895.2,286046998.5,P
1592951915.0,286047002.4,P
1592951915.9,286047002.4,N
1592951935.8,286047000.2,N
1592951955.6,286047000.7,N
1592951975.5,286046998.2,N
1592951995.3,286046998.4,N
1592952015.1,286046998.3,N
1592952035.9,286046998.7,N
1592952055.7,286047000.4,N
1592952075.5,286046998.5,N
1592952095.4,286046998.5,N
1592952115.2,286046998.5,N
1592952135.1,286046998.4,N
1592952136.0,286046998.4,N
1592952155.8,286046996.5,N
1592952175.6,286046998.4,N
1592952195.5,286047000.8,N
1592952215.3,286046998.7,N
1592952235.1,286046998.2,N
1592952255.9,286047000.5,N
1592952275.7,286047000.9,N
1592952295.6,286047001.2,N
1592952315.4,286046998.6,N
1592952335.2,286046999.8,N
1592952355.1,286047002.2,N
1592952356.0,286047002.2,N
1592952375.8,286047000.5,N
1592952395.7,286047001.2,N
1592952415.5,286046999.9,N
1592952435.3,286046998.1,N
1592952455.2,286047001.2,N
1592952475.0,286046999.9,N
1592952475.9,286046999.9,N
1592952495.8,286047000.7,N
1592952515.6,286046999.7,N
1592952535.4,286046999.7,N
1592952555.3,286047000.0,N
1592952575.1,286047000.8,N
1592952595.8,286046999.9,N
1592952615.7,286047000.7,N
1592952635.5,286047011.9,Y
1592952655.4,286047000.0,P
1592952675.2,286047000.1,N
1592952695.0,286047002.6,P
1592952695.9,286047002.6,N
1592952715.8,286047000.3,N
1592952735.6,286047002.7,N
1592952755.5,286046998.2,N
1592952775.3,286046999.0,N
1592952795.1,286047001.1,N
1592952845.9,286047000.6,E
1592952855.8,286047001.1,N
1592952875.7,286047001.2,P
1592952895.5,286047000.8,P
1592952915.3,286047001.1,Y
1592952935.2,286046998.3,P
1592952955.0,286046999.0,N
1592952955.9,286046999.0,N
1592952975.8,286046999.2,N
1592952995.6,286046999.3,N
1592953015.4,286047001.1,N
1592953035.3,286047000.1,N
1592953055.1,286047000.4,N
1592953075.9,286046998.1,N
1592953095.7,286047000.3,N
1592953115.5,286047001.1,N
1592953135.4,286047001.1,N
1592953155.2,286046998.2,N
1592953175.1,286046999.7,N
1592953176.0,286046999.7,N
1592953195.8,286047000.4,N
